Year,Month,Day,Hour,Minute,Value (Times are PST for temperature in C)
2014,09,21,00,00,14.00
2014,09,21,00,01,14.00
2014,09,21,00,02,14.00
2014,09,21,00,03,14.00
2014,09,21,00,04,14.00
2014,09,21,00,05,14.10
2014,09,21,00,06,14.00
2014,09,21,00,07,14.00
2014,09,21,00,08,13.90
2014,09,21,00,09,13.90
2014,09,21,00,10,13.80
2014,09,21,00,11,13.70
2014,09,21,00,12,13.60
2014,09,21,00,13,13.50
2014,09,21,00,14,13.50
2014,09,21,00,15,13.40
2014,09,21,00,16,13.50
2014,09,21,00,17,13.50
2014,09,21,00,18,13.60
2014,09,21,00,19,13.70
2014,09,21,00,20,13.70
2014,09,21,00,21,13.80
2014,09,21,00,22,13.70
2014,09,21,00,23,13.70
2014,09,21,00,24,13.60
2014,09,21,00,25,13.50
2014,09,21,00,26,13.50
2014,09,21,00,27,13.40
2014,09,21,00,28,13.40
2014,09,21,00,29,13.40
2014,09,21,00,30,13.40
2014,09,21,00,31,13.40
2014,09,21,00,32,13.40
2014,09,21,00,33,13.40
2014,09,21,00,34,13.40
2014,09,21,00,35,13.30
2014,09,21,00,36,13.30
2014,09,21,00,37,13.30
2014,09,21,00,38,13.30
2014,09,21,00,39,13.30
2014,09,21,00,40,13.30
2014,09,21,00,41,13.30
2014,09,21,00,42,13.40
2014,09,21,00,43,13.40
2014,09,21,00,44,13.40
2014,09,21,00,45,13.40
2014,09,21,00,46,13.40
2014,09,21,00,47,13.40
2014,09,21,00,48,13.40
2014,09,21,00,49,13.40
2014,09,21,00,50,13.40
2014,09,21,00,51,13.50
2014,09,21,00,52,13.50
2014,09,21,00,53,13.60
2014,09,21,00,54,13.60
2014,09,21,00,55,13.70
2014,09,21,00,56,13.70
2014,09,21,00,57,13.80
2014,09,21,00,58,13.80
2014,09,21,00,59,13.80
2014,09,21,01,00,13.80
2014,09,21,01,01,13.80
2014,09,21,01,02,13.80
2014,09,21,01,03,13.70
2014,09,21,01,04,13.70
2014,09,21,01,05,13.70
2014,09,21,01,06,13.70
2014,09,21,01,07,13.70
2014,09,21,01,08,13.70
2014,09,21,01,09,13.70
2014,09,21,01,10,13.70
2014,09,21,01,11,13.70
2014,09,21,01,12,13.80
2014,09,21,01,13,13.80
2014,09,21,01,14,13.90
2014,09,21,01,15,13.90
2014,09,21,01,16,14.00
2014,09,21,01,17,14.00
2014,09,21,01,18,14.00
2014,09,21,01,19,14.00
2014,09,21,01,20,13.90
2014,09,21,01,21,13.90
2014,09,21,01,22,13.80
2014,09,21,01,23,13.70
2014,09,21,01,24,13.50
2014,09,21,01,25,13.50
2014,09,21,01,26,13.40
2014,09,21,01,27,13.40
2014,09,21,01,28,13.40
2014,09,21,01,29,13.40
2014,09,21,01,30,13.50
2014,09,21,01,31,13.60
2014,09,21,01,32,13.60
2014,09,21,01,33,13.70
2014,09,21,01,34,13.70
2014,09,21,01,35,13.80
2014,09,21,01,36,13.80
2014,09,21,01,37,13.80
2014,09,21,01,38,13.90
2014,09,21,01,39,13.90
2014,09,21,01,40,13.90
2014,09,21,01,41,13.80
2014,09,21,01,42,13.80
2014,09,21,01,43,13.80
2014,09,21,01,44,13.70
2014,09,21,01,45,13.60
2014,09,21,01,46,13.60
2014,09,21,01,47,13.50
2014,09,21,01,48,13.50
2014,09,21,01,49,13.40
2014,09,21,01,50,13.40
2014,09,21,01,51,13.40
2014,09,21,01,52,13.40
2014,09,21,01,53,13.40
2014,09,21,01,54,13.30
2014,09,21,01,55,13.30
2014,09,21,01,56,13.30
2014,09,21,01,57,13.30
2014,09,21,01,58,13.30
2014,09,21,01,59,13.20
2014,09,21,02,00,13.30
2014,09,21,02,01,13.30
2014,09,21,02,02,13.30
2014,09,21,02,03,13.30
2014,09,21,02,04,13.30
2014,09,21,02,05,13.30
2014,09,21,02,06,13.20
2014,09,21,02,07,13.10
2014,09,21,02,08,13.00
2014,09,21,02,09,13.00
2014,09,21,02,10,12.90
2014,09,21,02,11,12.90
2014,09,21,02,12,12.90
2014,09,21,02,13,12.90
2014,09,21,02,14,12.90
2014,09,21,02,15,12.90
2014,09,21,02,16,12.90
2014,09,21,02,17,12.90
2014,09,21,02,18,12.90
2014,09,21,02,19,12.80
2014,09,21,02,20,12.80
2014,09,21,02,21,12.80
2014,09,21,02,22,12.80
2014,09,21,02,23,12.80
2014,09,21,02,24,13.00
2014,09,21,02,25,13.10
2014,09,21,02,26,13.20
2014,09,21,02,27,13.20
2014,09,21,02,28,13.30
2014,09,21,02,29,13.30
2014,09,21,02,30,13.30
2014,09,21,02,31,13.30
2014,09,21,02,32,13.20
2014,09,21,02,33,13.10
2014,09,21,02,34,13.10
2014,09,21,02,35,13.00
2014,09,21,02,36,13.00
2014,09,21,02,37,12.90
2014,09,21,02,38,12.90
2014,09,21,02,39,12.90
2014,09,21,02,40,12.90
2014,09,21,02,41,12.90
2014,09,21,02,42,12.90
2014,09,21,02,43,12.90
2014,09,21,02,44,12.90
2014,09,21,02,45,12.80
2014,09,21,02,46,12.80
2014,09,21,02,47,12.80
2014,09,21,02,48,12.80
2014,09,21,02,49,12.80
2014,09,21,02,50,12.80
2014,09,21,02,51,12.80
2014,09,21,02,52,12.80
2014,09,21,02,53,12.80
2014,09,21,02,54,12.80
2014,09,21,02,55,12.70
2014,09,21,02,56,12.60
2014,09,21,02,57,12.60
2014,09,21,02,58,12.60
2014,09,21,02,59,12.60
2014,09,21,03,00,12.60
2014,09,21,03,01,12.60
2014,09,21,03,02,12.60
2014,09,21,03,03,12.60
2014,09,21,03,04,12.60
2014,09,21,03,05,12.60
2014,09,21,03,06,12.60
2014,09,21,03,07,12.60
2014,09,21,03,08,12.60
2014,09,21,03,09,12.60
2014,09,21,03,10,12.60
2014,09,21,03,11,12.60
2014,09,21,03,12,12.60
2014,09,21,03,13,12.70
2014,09,21,03,14,12.70
2014,09,21,03,15,12.80
2014,09,21,03,16,12.90
2014,09,21,03,17,13.00
2014,09,21,03,18,13.00
2014,09,21,03,19,13.10
2014,09,21,03,20,13.10
2014,09,21,03,21,13.10
2014,09,21,03,22,13.10
2014,09,21,03,23,13.00
2014,09,21,03,24,12.90
2014,09,21,03,25,12.80
2014,09,21,03,26,12.80
2014,09,21,03,27,12.70
2014,09,21,03,28,12.60
2014,09,21,03,29,12.60
2014,09,21,03,30,12.50
2014,09,21,03,31,12.50
2014,09,21,03,32,12.50
2014,09,21,03,33,12.50
2014,09,21,03,34,12.50
2014,09,21,03,35,12.50
2014,09,21,03,36,12.40
2014,09,21,03,37,12.40
2014,09,21,03,38,12.30
2014,09,21,03,39,12.30
2014,09,21,03,40,12.30
2014,09,21,03,41,12.30
2014,09,21,03,42,12.40
2014,09,21,03,43,12.40
2014,09,21,03,44,12.40
2014,09,21,03,45,12.40
2014,09,21,03,46,12.50
2014,09,21,03,47,12.50
2014,09,21,03,48,12.50
2014,09,21,03,49,12.50
2014,09,21,03,50,12.50
2014,09,21,03,51,12.50
2014,09,21,03,52,12.50
2014,09,21,03,53,12.50
2014,09,21,03,54,12.50
2014,09,21,03,55,12.50
2014,09,21,03,56,12.50
2014,09,21,03,57,12.50
2014,09,21,03,58,12.60
2014,09,21,03,59,12.60
2014,09,21,04,00,12.60
2014,09,21,04,01,12.60
2014,09,21,04,02,12.70
2014,09,21,04,03,12.70
2014,09,21,04,04,12.80
2014,09,21,04,05,12.80
2014,09,21,04,06,12.90
2014,09,21,04,07,12.90
2014,09,21,04,08,13.00
2014,09,21,04,09,13.00
2014,09,21,04,10,13.00
2014,09,21,04,11,13.00
2014,09,21,04,12,12.90
2014,09,21,04,13,12.80
2014,09,21,04,14,12.80
2014,09,21,04,15,12.80
2014,09,21,04,16,12.80
2014,09,21,04,17,12.80
2014,09,21,04,18,12.80
2014,09,21,04,19,12.80
2014,09,21,04,20,12.70
2014,09,21,04,21,12.70
2014,09,21,04,22,12.70
2014,09,21,04,23,12.70
2014,09,21,04,24,12.70
2014,09,21,04,25,12.60
2014,09,21,04,26,12.50
2014,09,21,04,27,12.50
2014,09,21,04,28,12.50
2014,09,21,04,29,12.50
2014,09,21,04,30,12.50
2014,09,21,04,31,12.40
2014,09,21,04,32,12.40
2014,09,21,04,33,12.40
2014,09,21,04,34,12.50
2014,09,21,04,35,12.60
2014,09,21,04,36,12.60
2014,09,21,04,37,12.60
2014,09,21,04,38,12.50
2014,09,21,04,39,12.50
2014,09,21,04,40,12.40
2014,09,21,04,41,12.40
2014,09,21,04,42,12.40
2014,09,21,04,43,12.40
2014,09,21,04,44,12.40
2014,09,21,04,45,12.30
2014,09,21,04,46,12.30
2014,09,21,04,47,12.30
2014,09,21,04,48,12.30
2014,09,21,04,49,12.20
2014,09,21,04,50,12.30
2014,09,21,04,51,12.30
2014,09,21,04,52,12.30
2014,09,21,04,53,12.30
2014,09,21,04,54,12.30
2014,09,21,04,55,12.30
2014,09,21,04,56,12.30
2014,09,21,04,57,12.30
2014,09,21,04,58,12.40
2014,09,21,04,59,12.40
2014,09,21,05,00,12.50
2014,09,21,05,01,12.50
2014,09,21,05,02,12.60
2014,09,21,05,03,12.60
2014,09,21,05,04,12.60
2014,09,21,05,05,12.60
2014,09,21,05,06,12.60
2014,09,21,05,07,12.60
2014,09,21,05,08,12.70
2014,09,21,05,09,12.60
2014,09,21,05,10,12.60
2014,09,21,05,11,12.50
2014,09,21,05,12,12.50
2014,09,21,05,13,12.40
2014,09,21,05,14,12.40
2014,09,21,05,15,12.40
2014,09,21,05,16,12.30
2014,09,21,05,17,12.30
2014,09,21,05,18,12.20
2014,09,21,05,19,12.20
2014,09,21,05,20,12.30
2014,09,21,05,21,12.30
2014,09,21,05,22,12.20
2014,09,21,05,23,12.20
2014,09,21,05,24,12.20
2014,09,21,05,25,12.20
2014,09,21,05,26,12.20
2014,09,21,05,27,12.20
2014,09,21,05,28,12.20
2014,09,21,05,29,12.20
2014,09,21,05,30,12.20
2014,09,21,05,31,12.20
2014,09,21,05,32,12.20
2014,09,21,05,33,12.30
2014,09,21,05,34,12.30
2014,09,21,05,35,12.30
2014,09,21,05,36,12.30
2014,09,21,05,37,12.40
2014,09,21,05,38,12.40
2014,09,21,05,39,12.50
2014,09,21,05,40,12.50
2014,09,21,05,41,12.60
2014,09,21,05,42,12.60
2014,09,21,05,43,12.60
2014,09,21,05,44,12.50
2014,09,21,05,45,12.40
2014,09,21,05,46,12.40
2014,09,21,05,47,12.30
2014,09,21,05,48,12.30
2014,09,21,05,49,12.30
2014,09,21,05,50,12.30
2014,09,21,05,51,12.30
2014,09,21,05,52,12.40
2014,09,21,05,53,12.40
2014,09,21,05,54,12.40
2014,09,21,05,55,12.40
2014,09,21,05,56,12.30
2014,09,21,05,57,12.30
2014,09,21,05,58,12.40
2014,09,21,05,59,12.40
2014,09,21,06,00,12.40
2014,09,21,06,01,12.30
2014,09,21,06,02,12.30
2014,09,21,06,03,12.30
2014,09,21,06,04,12.20
2014,09,21,06,05,12.30
2014,09,21,06,06,12.30
2014,09,21,06,07,12.30
2014,09,21,06,08,12.40
2014,09,21,06,09,12.40
2014,09,21,06,10,12.30
2014,09,21,06,11,12.30
2014,09,21,06,12,12.30
2014,09,21,06,13,12.20
2014,09,21,06,14,12.20
2014,09,21,06,15,12.20
2014,09,21,06,16,12.20
2014,09,21,06,17,12.20
2014,09,21,06,18,12.30
2014,09,21,06,19,12.30
2014,09,21,06,20,12.30
2014,09,21,06,21,12.30
2014,09,21,06,22,12.40
2014,09,21,06,23,12.40
2014,09,21,06,24,12.30
2014,09,21,06,25,12.30
2014,09,21,06,26,12.30
2014,09,21,06,27,12.30
2014,09,21,06,28,12.30
2014,09,21,06,29,12.30
2014,09,21,06,30,12.30
2014,09,21,06,31,12.30
2014,09,21,06,32,12.30
2014,09,21,06,33,12.30
2014,09,21,06,34,12.30
2014,09,21,06,35,12.20
2014,09,21,06,36,12.20
2014,09,21,06,37,12.20
2014,09,21,06,38,12.20
2014,09,21,06,39,12.20
2014,09,21,06,40,12.10
2014,09,21,06,41,12.10
2014,09,21,06,42,12.10
2014,09,21,06,43,12.10
2014,09,21,06,44,12.10
2014,09,21,06,45,12.10
2014,09,21,06,46,12.10
2014,09,21,06,47,12.00
2014,09,21,06,48,12.00
2014,09,21,06,49,11.90
2014,09,21,06,50,11.90
2014,09,21,06,51,11.90
2014,09,21,06,52,11.90
2014,09,21,06,53,11.90
2014,09,21,06,54,11.80
2014,09,21,06,55,11.80
2014,09,21,06,56,11.70
2014,09,21,06,57,11.70
2014,09,21,06,58,11.80
2014,09,21,06,59,11.80
2014,09,21,07,00,11.80
2014,09,21,07,01,11.70
2014,09,21,07,02,11.70
2014,09,21,07,03,11.70
2014,09,21,07,04,11.80
2014,09,21,07,05,11.80
2014,09,21,07,06,11.80
2014,09,21,07,07,11.80
2014,09,21,07,08,11.90
2014,09,21,07,09,11.90
2014,09,21,07,10,12.00
2014,09,21,07,11,12.00
2014,09,21,07,12,12.10
2014,09,21,07,13,12.10
2014,09,21,07,14,12.10
2014,09,21,07,15,12.10
2014,09,21,07,16,12.00
2014,09,21,07,17,12.00
2014,09,21,07,18,11.90
2014,09,21,07,19,11.90
2014,09,21,07,20,12.00
2014,09,21,07,21,12.00
2014,09,21,07,22,12.10
2014,09,21,07,23,12.10
2014,09,21,07,24,12.10
2014,09,21,07,25,12.20
2014,09,21,07,26,12.20
2014,09,21,07,27,12.20
2014,09,21,07,28,12.20
2014,09,21,07,29,12.20
2014,09,21,07,30,12.30
2014,09,21,07,31,12.20
2014,09,21,07,32,12.20
2014,09,21,07,33,12.20
2014,09,21,07,34,12.20
2014,09,21,07,35,12.20
2014,09,21,07,36,12.20
2014,09,21,07,37,12.10
2014,09,21,07,38,12.10
2014,09,21,07,39,12.00
2014,09,21,07,40,12.00
2014,09,21,07,41,11.90
2014,09,21,07,42,11.90
2014,09,21,07,43,11.90
2014,09,21,07,44,12.00
2014,09,21,07,45,12.10
2014,09,21,07,46,12.10
2014,09,21,07,47,12.20
2014,09,21,07,48,12.20
2014,09,21,07,49,12.30
2014,09,21,07,50,12.30
2014,09,21,07,51,12.40
2014,09,21,07,52,12.50
2014,09,21,07,53,12.60
2014,09,21,07,54,12.60
2014,09,21,07,55,12.70
2014,09,21,07,56,12.70
2014,09,21,07,57,12.80
2014,09,21,07,58,12.80
2014,09,21,07,59,12.90
2014,09,21,08,00,12.90
2014,09,21,08,01,13.00
2014,09,21,08,02,13.00
2014,09,21,08,03,13.10
2014,09,21,08,04,13.10
2014,09,21,08,05,13.10
2014,09,21,08,06,13.10
2014,09,21,08,07,13.10
2014,09,21,08,08,13.10
2014,09,21,08,09,13.10
2014,09,21,08,10,13.20
2014,09,21,08,11,13.20
2014,09,21,08,12,13.20
2014,09,21,08,13,13.30
2014,09,21,08,14,13.30
2014,09,21,08,15,13.30
2014,09,21,08,16,13.30
2014,09,21,08,17,13.30
2014,09,21,08,18,13.30
2014,09,21,08,19,13.30
2014,09,21,08,20,13.40
2014,09,21,08,21,13.40
2014,09,21,08,22,13.50
2014,09,21,08,23,13.50
2014,09,21,08,24,13.60
2014,09,21,08,25,13.60
2014,09,21,08,26,13.70
2014,09,21,08,27,13.70
2014,09,21,08,28,13.80
2014,09,21,08,29,13.90
2014,09,21,08,30,13.90
2014,09,21,08,31,14.00
2014,09,21,08,32,14.00
2014,09,21,08,33,14.10
2014,09,21,08,34,14.20
2014,09,21,08,35,14.20
2014,09,21,08,36,14.20
2014,09,21,08,37,14.20
2014,09,21,08,38,14.20
2014,09,21,08,39,14.20
2014,09,21,08,40,14.30
2014,09,21,08,41,14.30
2014,09,21,08,42,14.40
2014,09,21,08,43,14.40
2014,09,21,08,44,14.50
2014,09,21,08,45,14.60
2014,09,21,08,46,14.70
2014,09,21,08,47,14.80
2014,09,21,08,48,14.90
2014,09,21,08,49,15.00
2014,09,21,08,50,15.00
2014,09,21,08,51,15.10
2014,09,21,08,52,15.10
2014,09,21,08,53,15.20
2014,09,21,08,54,15.20
2014,09,21,08,55,15.30
2014,09,21,08,56,15.30
2014,09,21,08,57,15.40
2014,09,21,08,58,15.40
2014,09,21,08,59,15.50
2014,09,21,09,00,15.50
2014,09,21,09,01,15.60
2014,09,21,09,02,15.70
2014,09,21,09,03,15.70
2014,09,21,09,04,15.80
2014,09,21,09,05,15.90
2014,09,21,09,06,16.00
2014,09,21,09,07,16.10
2014,09,21,09,08,16.20
2014,09,21,09,09,16.30
2014,09,21,09,10,16.40
2014,09,21,09,11,16.50
2014,09,21,09,12,16.60
2014,09,21,09,13,16.70
2014,09,21,09,14,16.80
2014,09,21,09,15,16.90
2014,09,21,09,16,17.00
2014,09,21,09,17,17.10
2014,09,21,09,18,17.20
2014,09,21,09,19,17.30
2014,09,21,09,20,17.40
2014,09,21,09,21,17.50
2014,09,21,09,22,17.60
2014,09,21,09,23,17.60
2014,09,21,09,24,17.70
2014,09,21,09,25,17.80
2014,09,21,09,26,17.80
2014,09,21,09,27,17.80
2014,09,21,09,28,17.80
2014,09,21,09,29,17.80
2014,09,21,09,30,17.80
2014,09,21,09,31,17.80
2014,09,21,09,32,17.80
2014,09,21,09,33,17.90
2014,09,21,09,34,17.90
2014,09,21,09,35,17.90
2014,09,21,09,36,17.90
2014,09,21,09,37,17.90
2014,09,21,09,38,17.90
2014,09,21,09,39,17.90
2014,09,21,09,40,17.90
2014,09,21,09,41,17.90
2014,09,21,09,42,18.00
2014,09,21,09,43,18.00
2014,09,21,09,44,18.10
2014,09,21,09,45,18.10
2014,09,21,09,46,18.20
2014,09,21,09,47,18.30
2014,09,21,09,48,18.30
2014,09,21,09,49,18.40
2014,09,21,09,50,18.50
2014,09,21,09,51,18.50
2014,09,21,09,52,18.50
2014,09,21,09,53,18.60
2014,09,21,09,54,18.60
2014,09,21,09,55,18.60
2014,09,21,09,56,18.60
2014,09,21,09,57,18.60
2014,09,21,09,58,18.60
2014,09,21,09,59,18.60
2014,09,21,10,00,18.60
2014,09,21,10,01,18.70
2014,09,21,10,02,18.70
2014,09,21,10,03,18.70
2014,09,21,10,04,18.70
2014,09,21,10,05,18.70
2014,09,21,10,06,18.70
2014,09,21,10,07,18.70
2014,09,21,10,08,18.70
2014,09,21,10,09,18.70
2014,09,21,10,10,18.70
2014,09,21,10,11,18.70
2014,09,21,10,12,18.70
2014,09,21,10,13,18.70
2014,09,21,10,14,18.70
2014,09,21,10,15,18.80
2014,09,21,10,16,18.80
2014,09,21,10,17,18.90
2014,09,21,10,18,18.90
2014,09,21,10,19,19.00
2014,09,21,10,20,19.10
2014,09,21,10,21,19.20
2014,09,21,10,22,19.20
2014,09,21,10,23,19.30
2014,09,21,10,24,19.30
2014,09,21,10,25,19.30
2014,09,21,10,26,19.30
2014,09,21,10,27,19.30
2014,09,21,10,28,19.30
2014,09,21,10,29,19.30
2014,09,21,10,30,19.40
2014,09,21,10,31,19.40
2014,09,21,10,32,19.50
2014,09,21,10,33,19.50
2014,09,21,10,34,19.50
2014,09,21,10,35,19.60
2014,09,21,10,36,19.60
2014,09,21,10,37,19.60
2014,09,21,10,38,19.70
2014,09,21,10,39,19.70
2014,09,21,10,40,19.80
2014,09,21,10,41,19.80
2014,09,21,10,42,19.80
2014,09,21,10,43,19.90
2014,09,21,10,44,19.90
2014,09,21,10,45,19.90
2014,09,21,10,46,19.90
2014,09,21,10,47,20.00
2014,09,21,10,48,20.00
2014,09,21,10,49,20.10
2014,09,21,10,50,20.10
2014,09,21,10,51,20.10
2014,09,21,10,52,20.20
2014,09,21,10,53,20.20
2014,09,21,10,54,20.20
2014,09,21,10,55,20.20
2014,09,21,10,56,20.20
2014,09,21,10,57,20.20
2014,09,21,10,58,20.20
2014,09,21,10,59,20.20
2014,09,21,11,00,20.30
2014,09,21,11,01,20.30
2014,09,21,11,02,20.30
2014,09,21,11,03,20.40
2014,09,21,11,04,20.40
2014,09,21,11,05,20.50
2014,09,21,11,06,20.50
2014,09,21,11,07,20.60
2014,09,21,11,08,20.70
2014,09,21,11,09,20.80
2014,09,21,11,10,20.80
2014,09,21,11,11,20.90
2014,09,21,11,12,20.90
2014,09,21,11,13,21.00
2014,09,21,11,14,21.00
2014,09,21,11,15,21.00
2014,09,21,11,16,21.00
2014,09,21,11,17,21.10
2014,09,21,11,18,21.10
2014,09,21,11,19,21.10
2014,09,21,11,20,21.20
2014,09,21,11,21,21.20
2014,09,21,11,22,21.20
2014,09,21,11,23,21.30
2014,09,21,11,24,21.40
2014,09,21,11,25,21.50
2014,09,21,11,26,21.50
2014,09,21,11,27,21.60
2014,09,21,11,28,21.60
2014,09,21,11,29,21.50
2014,09,21,11,30,21.50
2014,09,21,11,31,21.50
2014,09,21,11,32,21.50
2014,09,21,11,33,21.60
2014,09,21,11,34,21.60
2014,09,21,11,35,21.60
2014,09,21,11,36,21.70
2014,09,21,11,37,21.60
2014,09,21,11,38,21.60
2014,09,21,11,39,21.60
2014,09,21,11,40,21.60
2014,09,21,11,41,21.60
2014,09,21,11,42,21.60
2014,09,21,11,43,21.60
2014,09,21,11,44,21.60
2014,09,21,11,45,21.60
2014,09,21,11,46,21.60
2014,09,21,11,47,21.70
2014,09,21,11,48,21.70
2014,09,21,11,49,21.70
2014,09,21,11,50,21.80
2014,09,21,11,51,21.90
2014,09,21,11,52,22.00
2014,09,21,11,53,22.10
2014,09,21,11,54,22.10
2014,09,21,11,55,22.20
2014,09,21,11,56,22.20
2014,09,21,11,57,22.20
2014,09,21,11,58,22.20
2014,09,21,11,59,22.20
2014,09,21,12,00,22.20
2014,09,21,12,01,22.20
2014,09,21,12,02,22.20
2014,09,21,12,03,22.30
2014,09,21,12,04,22.30
2014,09,21,12,05,22.30
2014,09,21,12,06,22.40
2014,09,21,12,07,22.40
2014,09,21,12,08,22.40
2014,09,21,12,09,22.40
2014,09,21,12,10,22.40
2014,09,21,12,11,22.40
2014,09,21,12,12,22.50
2014,09,21,12,13,22.60
2014,09,21,12,14,22.70
2014,09,21,12,15,22.80
2014,09,21,12,16,22.80
2014,09,21,12,17,22.90
2014,09,21,12,18,22.90
2014,09,21,12,19,22.90
2014,09,21,12,20,23.00
2014,09,21,12,21,23.00
2014,09,21,12,22,23.00
2014,09,21,12,23,22.90
2014,09,21,12,24,22.90
2014,09,21,12,25,22.80
2014,09,21,12,26,22.80
2014,09,21,12,27,22.90
2014,09,21,12,28,22.90
2014,09,21,12,29,22.90
2014,09,21,12,30,22.90
2014,09,21,12,31,22.90
2014,09,21,12,32,22.90
2014,09,21,12,33,22.90
2014,09,21,12,34,22.90
2014,09,21,12,35,22.90
2014,09,21,12,36,22.90
2014,09,21,12,37,22.90
2014,09,21,12,38,23.00
2014,09,21,12,39,23.10
2014,09,21,12,40,23.10
2014,09,21,12,41,23.20
2014,09,21,12,42,23.20
2014,09,21,12,43,23.30
2014,09,21,12,44,23.30
2014,09,21,12,45,23.30
2014,09,21,12,46,23.30
2014,09,21,12,47,23.30
2014,09,21,12,48,23.30
2014,09,21,12,49,23.30
2014,09,21,12,50,23.30
2014,09,21,12,51,23.30
2014,09,21,12,52,23.30
2014,09,21,12,53,23.30
2014,09,21,12,54,23.40
2014,09,21,12,55,23.40
2014,09,21,12,56,23.50
2014,09,21,12,57,23.50
2014,09,21,12,58,23.50
2014,09,21,12,59,23.60
2014,09,21,13,00,23.60
2014,09,21,13,01,23.60
2014,09,21,13,02,23.60
2014,09,21,13,03,23.50
2014,09,21,13,04,23.50
2014,09,21,13,05,23.50
2014,09,21,13,06,23.50
2014,09,21,13,07,23.40
2014,09,21,13,08,23.40
2014,09,21,13,09,23.40
2014,09,21,13,10,23.40
2014,09,21,13,11,23.40
2014,09,21,13,12,23.40
2014,09,21,13,13,23.40
2014,09,21,13,14,23.50
2014,09,21,13,15,23.60
2014,09,21,13,16,23.70
2014,09,21,13,17,23.70
2014,09,21,13,18,23.80
2014,09,21,13,19,23.80
2014,09,21,13,20,23.80
2014,09,21,13,21,23.80
2014,09,21,13,22,23.80
2014,09,21,13,23,23.80
2014,09,21,13,24,23.70
2014,09,21,13,25,23.80
2014,09,21,13,26,23.80
2014,09,21,13,27,23.90
2014,09,21,13,28,23.90
2014,09,21,13,29,24.00
2014,09,21,13,30,24.00
2014,09,21,13,31,24.00
2014,09,21,13,32,24.10
2014,09,21,13,33,24.10
2014,09,21,13,34,24.20
2014,09,21,13,35,24.20
2014,09,21,13,36,24.20
2014,09,21,13,37,24.10
2014,09,21,13,38,24.10
2014,09,21,13,39,24.10
2014,09,21,13,40,24.10
2014,09,21,13,41,24.10
2014,09,21,13,42,24.10
2014,09,21,13,43,24.00
2014,09,21,13,44,23.90
2014,09,21,13,45,23.90
2014,09,21,13,46,23.80
2014,09,21,13,47,23.80
2014,09,21,13,48,23.90
2014,09,21,13,49,24.00
2014,09,21,13,50,24.00
2014,09,21,13,51,24.10
2014,09,21,13,52,24.10
2014,09,21,13,53,24.10
2014,09,21,13,54,24.20
2014,09,21,13,55,24.30
2014,09,21,13,56,24.40
2014,09,21,13,57,24.60
2014,09,21,13,58,24.90
2014,09,21,13,59,25.00
2014,09,21,14,00,25.00
2014,09,21,14,01,25.10
2014,09,21,14,02,25.10
2014,09,21,14,03,25.10
2014,09,21,14,04,25.10
2014,09,21,14,05,25.10
2014,09,21,14,06,25.20
2014,09,21,14,07,25.20
2014,09,21,14,08,25.20
2014,09,21,14,09,25.20
2014,09,21,14,10,25.20
2014,09,21,14,11,25.20
2014,09,21,14,12,25.20
2014,09,21,14,13,25.20
2014,09,21,14,14,25.20
2014,09,21,14,15,25.20
2014,09,21,14,16,25.20
2014,09,21,14,17,25.20
2014,09,21,14,18,25.20
2014,09,21,14,19,25.20
2014,09,21,14,20,25.20
2014,09,21,14,21,25.30
2014,09,21,14,22,25.50
2014,09,21,14,23,25.70
2014,09,21,14,24,25.80
2014,09,21,14,25,25.90
2014,09,21,14,26,26.00
2014,09,21,14,27,26.00
2014,09,21,14,28,26.10
2014,09,21,14,29,26.20
2014,09,21,14,30,26.20
2014,09,21,14,31,26.30
2014,09,21,14,32,26.30
2014,09,21,14,33,26.30
2014,09,21,14,34,26.30
2014,09,21,14,35,26.30
2014,09,21,14,36,26.40
2014,09,21,14,37,26.40
2014,09,21,14,38,26.50
2014,09,21,14,39,26.60
2014,09,21,14,40,26.70
2014,09,21,14,41,26.70
2014,09,21,14,42,26.60
2014,09,21,14,43,26.60
2014,09,21,14,44,26.60
2014,09,21,14,45,26.70
2014,09,21,14,46,26.70
2014,09,21,14,47,26.80
2014,09,21,14,48,26.90
2014,09,21,14,49,27.10
2014,09,21,14,50,27.20
2014,09,21,14,51,27.20
2014,09,21,14,52,27.20
2014,09,21,14,53,27.10
2014,09,21,14,54,27.10
2014,09,21,14,55,27.10
2014,09,21,14,56,27.10
2014,09,21,14,57,27.10
2014,09,21,14,58,27.10
2014,09,21,14,59,27.10
2014,09,21,15,00,27.00
2014,09,21,15,01,27.00
2014,09,21,15,02,27.00
2014,09,21,15,03,27.10
2014,09,21,15,04,27.10
2014,09,21,15,05,27.20
2014,09,21,15,06,27.20
2014,09,21,15,07,27.10
2014,09,21,15,08,27.10
2014,09,21,15,09,27.10
2014,09,21,15,10,27.10
2014,09,21,15,11,27.10
2014,09,21,15,12,27.10
2014,09,21,15,13,27.00
2014,09,21,15,14,26.90
2014,09,21,15,15,26.80
2014,09,21,15,16,26.70
2014,09,21,15,17,26.70
2014,09,21,15,18,26.60
2014,09,21,15,19,26.60
2014,09,21,15,20,26.60
2014,09,21,15,21,26.70
2014,09,21,15,22,26.70
2014,09,21,15,23,26.70
2014,09,21,15,24,26.70
2014,09,21,15,25,26.80
2014,09,21,15,26,26.80
2014,09,21,15,27,26.80
2014,09,21,15,28,26.80
2014,09,21,15,29,26.80
2014,09,21,15,30,26.80
2014,09,21,15,31,26.80
2014,09,21,15,32,26.90
2014,09,21,15,33,26.90
2014,09,21,15,34,26.90
2014,09,21,15,35,27.00
2014,09,21,15,36,27.10
2014,09,21,15,37,27.10
2014,09,21,15,38,27.20
2014,09,21,15,39,27.30
2014,09,21,15,40,27.40
2014,09,21,15,41,27.40
2014,09,21,15,42,27.50
2014,09,21,15,43,27.60
2014,09,21,15,44,27.60
2014,09,21,15,45,27.70
2014,09,21,15,46,27.70
2014,09,21,15,47,27.70
2014,09,21,15,48,27.70
2014,09,21,15,49,27.70
2014,09,21,15,50,27.70
2014,09,21,15,51,27.70
2014,09,21,15,52,27.80
2014,09,21,15,53,27.80
2014,09,21,15,54,27.80
2014,09,21,15,55,27.80
2014,09,21,15,56,27.80
2014,09,21,15,57,27.80
2014,09,21,15,58,27.80
2014,09,21,15,59,27.80
2014,09,21,16,00,27.80
2014,09,21,16,01,27.70
2014,09,21,16,02,27.70
2014,09,21,16,03,27.70
2014,09,21,16,04,27.70
2014,09,21,16,05,27.80
2014,09,21,16,06,27.80
2014,09,21,16,07,27.80
2014,09,21,16,08,27.80
2014,09,21,16,09,27.80
2014,09,21,16,10,27.80
2014,09,21,16,11,27.80
2014,09,21,16,12,27.80
2014,09,21,16,13,27.70
2014,09,21,16,14,27.70
2014,09,21,16,15,27.70
2014,09,21,16,16,27.70
2014,09,21,16,17,27.60
2014,09,21,16,18,27.60
2014,09,21,16,19,27.50
2014,09,21,16,20,27.50
2014,09,21,16,21,27.50
2014,09,21,16,22,27.50
2014,09,21,16,23,27.50
2014,09,21,16,24,27.50
2014,09,21,16,25,27.50
2014,09,21,16,26,27.50
2014,09,21,16,27,27.50
2014,09,21,16,28,27.50
2014,09,21,16,29,27.50
2014,09,21,16,30,27.40
2014,09,21,16,31,27.40
2014,09,21,16,32,27.30
2014,09,21,16,33,27.20
2014,09,21,16,34,27.20
2014,09,21,16,35,27.20
2014,09,21,16,36,27.20
2014,09,21,16,37,27.20
2014,09,21,16,38,27.10
2014,09,21,16,39,27.10
2014,09,21,16,40,27.00
2014,09,21,16,41,27.00
2014,09,21,16,42,27.00
2014,09,21,16,43,27.00
2014,09,21,16,44,27.00
2014,09,21,16,45,27.00
2014,09,21,16,46,27.00
2014,09,21,16,47,27.00
2014,09,21,16,48,27.00
2014,09,21,16,49,27.00
2014,09,21,16,50,27.00
2014,09,21,16,51,26.90
2014,09,21,16,52,26.90
2014,09,21,16,53,26.90
2014,09,21,16,54,26.90
2014,09,21,16,55,26.90
2014,09,21,16,56,26.90
2014,09,21,16,57,26.90
2014,09,21,16,58,26.80
2014,09,21,16,59,26.80
2014,09,21,17,00,26.80
2014,09,21,17,01,26.90
2014,09,21,17,02,26.90
2014,09,21,17,03,26.90
2014,09,21,17,04,27.00
2014,09,21,17,05,27.00
2014,09,21,17,06,27.10
2014,09,21,17,07,27.10
2014,09,21,17,08,27.10
2014,09,21,17,09,27.00
2014,09,21,17,10,27.00
2014,09,21,17,11,27.00
2014,09,21,17,12,27.00
2014,09,21,17,13,27.00
2014,09,21,17,14,27.00
2014,09,21,17,15,27.00
2014,09,21,17,16,27.00
2014,09,21,17,17,27.10
2014,09,21,17,18,27.10
2014,09,21,17,19,27.10